Location: Baili�vre
(50.0696°N, 4.2409°E)
Time: 05:24:16
(UTC+00:00)

ALOS 2 - Pass Details

Date: 08 August 2020
Orbit: 630 x 632 km, 97.9° (Epoch: 19 September)

Event Time Altitude Azimuth Distance (km) Brightness Sun altitude
Exits shadow 22:27:31 38° 94° (E) 969 3.3 -21.8°
Maximum altitude 22:28:14 41° 68° (ENE) 917 3.4 -21.8°
Drops below altitude 10° 22:32:23 10° 359° (N) 2,027 6.2 -22.0°
Sets 22:34:40 0° 352° (N) 2,940 7.4 -22.2°
